�������C�����ː����j�^�v���󋵏��
Date,Time,Cs137(Bq/L),Cs134(Bq/L),�S��(Bq/L)
2021/02/23,00:00,-,-,18
2021/02/23,00:10,-,-,15
2021/02/23,00:20,-,-,13
2021/02/23,00:30,-,-,12
2021/02/23,00:40,-,-,11
2021/02/23,00:50,-,-,12
2021/02/23,01:00,-,-,11
2021/02/23,01:10,-,-,13
2021/02/23,01:20,-,-,14
2021/02/23,01:30,-,-,14
2021/02/23,01:40,-,-,13
2021/02/23,01:50,-,-,12
2021/02/23,02:00,-,-,12
2021/02/23,02:10,-,-,8.8
2021/02/23,02:20,-,-,9.7
2021/02/23,02:30,-,-,13
2021/02/23,02:40,-,-,13
2021/02/23,02:50,-,-,13
2021/02/23,03:00,-,-,15
2021/02/23,03:10,-,-,17
2021/02/23,03:20,-,-,15
2021/02/23,03:30,-,-,15
2021/02/23,03:40,-,-,14
2021/02/23,03:50,-,-,15
2021/02/23,04:00,-,-,15
2021/02/23,04:10,-,-,14
2021/02/23,04:20,-,-,15
2021/02/23,04:30,-,-,12
2021/02/23,04:40,-,-,15
2021/02/23,04:50,-,-,16
2021/02/23,05:00,-,-,15
2021/02/23,05:10,-,-,14
2021/02/23,05:20,-,-,13
2021/02/23,05:30,-,-,18
2021/02/23,05:40,-,-,18
2021/02/23,05:50,-,-,17
2021/02/23,06:00,-,-,16
2021/02/23,06:10,-,-,21
2021/02/23,06:20,-,-,22
2021/02/23,06:30,-,-,20
2021/02/23,06:40,-,-,20
2021/02/23,06:50,-,-,19
2021/02/23,07:00,-,-,19
2021/02/23,07:10,-,-,14
2021/02/23,07:20,-,-,11
2021/02/23,07:30,-,-,ND
2021/02/23,07:40,-,-,ND
2021/02/23,07:50,-,-,8.9
2021/02/23,08:00,-,-,10
2021/02/23,08:10,-,-,10
2021/02/23,08:20,-,-,11
2021/02/23,08:30,-,-,16
2021/02/23,08:40,-,-,14
2021/02/23,08:50,-,-,15
2021/02/23,09:00,-,-,12
2021/02/23,09:10,-,-,15
2021/02/23,09:20,-,-,17
2021/02/23,09:30,-,-,17
2021/02/23,09:40,-,-,17
2021/02/23,09:50,-,-,16
2021/02/23,10:00,-,-,18
2021/02/23,10:10,-,-,17
2021/02/23,10:20,-,-,16
2021/02/23,10:30,-,-,14
2021/02/23,10:40,-,-,11
2021/02/23,10:50,-,-,10
2021/02/23,11:00,-,-,11
2021/02/23,11:10,-,-,11
2021/02/23,11:20,-,-,12
2021/02/23,11:30,-,-,13
2021/02/23,11:40,-,-,14
2021/02/23,11:50,-,-,14
2021/02/23,12:00,-,-,13
2021/02/23,12:10,-,-,12
2021/02/23,12:20,-,-,13
2021/02/23,12:30,-,-,13
2021/02/23,12:40,-,-,16
2021/02/23,12:50,-,-,17
2021/02/23,13:00,-,-,19
2021/02/23,13:10,-,-,18
2021/02/23,13:20,-,-,16
2021/02/23,13:30,-,-,16
2021/02/23,13:40,-,-,16
2021/02/23,13:50,-,-,15
2021/02/23,14:00,-,-,11
2021/02/23,14:10,-,-,9.3
2021/02/23,14:20,-,-,11
2021/02/23,14:30,-,-,10
2021/02/23,14:40,-,-,9.0
2021/02/23,14:50,-,-,10
2021/02/23,15:00,-,-,14
2021/02/23,15:10,-,-,16
2021/02/23,15:20,-,-,15
2021/02/23,15:30,-,-,17
2021/02/23,15:40,-,-,18
2021/02/23,15:50,-,-,18
2021/02/23,16:00,-,-,21
2021/02/23,16:10,-,-,21
2021/02/23,16:20,-,-,20
2021/02/23,16:30,-,-,19
2021/02/23,16:40,-,-,16
2021/02/23,16:50,-,-,17
2021/02/23,17:00,-,-,14
2021/02/23,17:10,-,-,13
2021/02/23,17:20,-,-,14
2021/02/23,17:30,-,-,14
2021/02/23,17:40,-,-,16
2021/02/23,17:50,-,-,14
2021/02/23,18:00,-,-,11
2021/02/23,18:10,-,-,11
2021/02/23,18:20,-,-,10
2021/02/23,18:30,-,-,10
2021/02/23,18:40,-,-,ND
2021/02/23,18:50,-,-,ND
2021/02/23,19:00,-,-,ND
2021/02/23,19:10,-,-,9.5
2021/02/23,19:20,-,-,9.6
2021/02/23,19:30,-,-,9.9
2021/02/23,19:40,-,-,9.9
2021/02/23,19:50,-,-,ND
2021/02/23,20:00,-,-,ND
2021/02/23,20:10,-,-,ND
2021/02/23,20:20,-,-,ND
2021/02/23,20:30,-,-,ND
2021/02/23,20:40,-,-,ND
2021/02/23,20:50,-,-,10
2021/02/23,21:00,-,-,12
2021/02/23,21:10,-,-,12
2021/02/23,21:20,-,-,12
2021/02/23,21:30,-,-,11
2021/02/23,21:40,-,-,12
2021/02/23,21:50,-,-,11
2021/02/23,22:00,-,-,13
2021/02/23,22:10,-,-,10
2021/02/23,22:20,-,-,12
2021/02/23,22:30,-,-,13
2021/02/23,22:40,-,-,13
2021/02/23,22:50,-,-,14
2021/02/23,23:00,-,-,13
2021/02/23,23:10,-,-,15
2021/02/23,23:20,-,-,13
2021/02/23,23:30,-,-,12
2021/02/23,23:40,-,-,12
2021/02/23,23:50,-,-,13
